�������l�o���
Date,Time,MP-1(��Sv/h),MP-2(��Sv/h),MP-3(��Sv/h),MP-4(��Sv/h),MP-5(��Sv/h),MP-6(��Sv/h),MP-7(��Sv/h),MP-8(��Sv/h),����,����(m/s),���J
2017/09/13,00:00,0.930,1.470,0.963,1.760,1.218,0.511,0.938,0.865,���k��,6.3,��
2017/09/13,00:10,0.930,1.469,0.964,1.761,1.215,0.511,0.937,0.864,���k��,4.6,��
2017/09/13,00:20,0.930,1.469,0.964,1.758,1.217,0.511,0.937,0.864,���k��,4.8,��
2017/09/13,00:30,0.927,1.470,0.964,1.759,1.218,0.511,0.937,0.864,�k��,5.4,��
2017/09/13,00:40,0.926,1.471,0.963,1.755,1.216,0.512,0.936,0.865,���k��,6.6,��
2017/09/13,00:50,0.927,1.470,0.963,1.760,1.216,0.512,0.936,0.865,�k��,6.3,��
2017/09/13,01:00,0.927,1.470,0.964,1.760,1.214,0.512,0.937,0.863,�k��,7.5,��
2017/09/13,01:10,0.928,1.472,0.966,1.760,1.213,0.511,0.937,0.864,�k��,6.8,��
2017/09/13,01:20,0.927,1.470,0.965,1.759,1.220,0.510,0.938,0.864,�k��,4.9,��
2017/09/13,01:30,0.926,1.470,0.966,1.763,1.216,0.513,0.939,0.864,�k��,7.7,��
2017/09/13,01:40,0.926,1.468,0.963,1.761,1.216,0.511,0.938,0.863,�k��,5.4,��
2017/09/13,01:50,0.928,1.470,0.966,1.758,1.218,0.512,0.939,0.864,�k��,5.5,��
2017/09/13,02:00,0.928,1.467,0.965,1.763,1.215,0.511,0.938,0.864,�k��,6.2,��
2017/09/13,02:10,0.929,1.471,0.963,1.758,1.218,0.511,0.935,0.863,�k��,4.3,��
2017/09/13,02:20,0.927,1.470,0.963,1.762,1.217,0.511,0.936,0.864,�k��,6.1,��
2017/09/13,02:30,0.930,1.469,0.964,1.762,1.218,0.512,0.937,0.863,�k�k��,3.2,��
2017/09/13,02:40,0.925,1.470,0.965,1.758,1.218,0.510,0.937,0.864,�k��,4.6,��
2017/09/13,02:50,0.928,1.471,0.965,1.763,1.218,0.511,0.937,0.863,�k��,6.0,��
2017/09/13,03:00,0.927,1.470,0.965,1.761,1.217,0.512,0.937,0.865,�k��,4.8,��
2017/09/13,03:10,0.927,1.469,0.964,1.761,1.216,0.512,0.937,0.865,�k�k��,2.6,��
2017/09/13,03:20,0.927,1.472,0.963,1.760,1.219,0.512,0.937,0.865,�k�k��,2.6,��
2017/09/13,03:30,0.929,1.472,0.964,1.760,1.219,0.511,0.936,0.866,�k��,2.3,��
2017/09/13,03:40,0.928,1.472,0.963,1.763,1.218,0.511,0.936,0.863,�k,2.8,��
2017/09/13,03:50,0.928,1.470,0.965,1.760,1.216,0.511,0.937,0.864,�k,2.0,��
2017/09/13,04:00,0.927,1.470,0.964,1.758,1.219,0.510,0.937,0.865,�k�k��,2.9,��
2017/09/13,04:10,0.927,1.471,0.964,1.760,1.217,0.510,0.938,0.864,�k��,4.4,��
2017/09/13,04:20,0.928,1.471,0.963,1.762,1.216,0.511,0.938,0.865,�k��,3.2,��
2017/09/13,04:30,0.927,1.469,0.963,1.760,1.219,0.511,0.935,0.864,�k��,1.4,��
2017/09/13,04:40,0.926,1.467,0.963,1.758,1.220,0.511,0.938,0.865,��,2.6,��
2017/09/13,04:50,0.927,1.470,0.963,1.760,1.215,0.508,0.939,0.864,��,3.4,��
2017/09/13,05:00,0.926,1.468,0.962,1.761,1.220,0.512,0.939,0.864,���k��,3.5,��
2017/09/13,05:10,0.928,1.469,0.963,1.761,1.215,0.511,0.937,0.865,�k��,4.5,��
2017/09/13,05:20,0.927,1.470,0.962,1.759,1.218,0.511,0.939,0.866,�k��,2.8,��
2017/09/13,05:30,0.927,1.469,0.963,1.760,1.219,0.511,0.936,0.863,�k��,2.6,��
2017/09/13,05:40,0.925,1.468,0.961,1.759,1.217,0.510,0.936,0.864,�k��,3.0,��
2017/09/13,05:50,0.925,1.470,0.963,1.761,1.217,0.510,0.938,0.865,�k��,2.6,��
2017/09/13,06:00,0.925,1.473,0.963,1.759,1.218,0.509,0.939,0.865,�k��,1.7,��
2017/09/13,06:10,0.925,1.468,0.962,1.759,1.219,0.512,0.939,0.863,���k��,0.9,��
2017/09/13,06:20,0.928,1.470,0.963,1.758,1.216,0.511,0.938,0.863,�k��,2.0,��
2017/09/13,06:30,0.928,1.471,0.963,1.760,1.217,0.510,0.939,0.865,�k��,2.2,��
2017/09/13,06:40,0.927,1.471,0.965,1.760,1.217,0.508,0.938,0.865,���k��,2.0,��
2017/09/13,06:50,0.926,1.471,0.964,1.758,1.218,0.512,0.940,0.865,���k��,1.7,��
2017/09/13,07:00,0.925,1.472,0.963,1.762,1.217,0.510,0.939,0.864,�k��,1.1,��
2017/09/13,07:10,0.924,1.470,0.964,1.758,1.216,0.511,0.937,0.865,�쐼,1.1,��
2017/09/13,07:20,0.926,1.469,0.962,1.762,1.215,0.509,0.938,0.865,���k��,1.2,��
2017/09/13,07:30,0.926,1.471,0.962,1.763,1.215,0.509,0.939,0.865,���k��,2.0,��
2017/09/13,07:40,0.926,1.468,0.963,1.761,1.218,0.510,0.938,0.865,�k��,2.8,��
2017/09/13,07:50,0.930,1.472,0.964,1.759,1.219,0.512,0.938,0.865,���k��,1.5,��
2017/09/13,08:00,0.928,1.468,0.964,1.761,1.219,0.511,0.939,0.866,���k��,1.7,��
2017/09/13,08:10,0.928,1.471,0.963,1.763,1.218,0.510,0.939,0.865,�k��,2.3,��
2017/09/13,08:20,0.929,1.469,0.964,1.765,1.220,0.509,0.938,0.864,�k�k��,2.5,��
2017/09/13,08:30,0.925,1.472,0.960,1.763,1.217,0.509,0.938,0.863,�k,0.8,��
2017/09/13,08:40,0.927,1.470,0.964,1.761,1.218,0.510,0.937,0.863,-,CALM,��
2017/09/13,08:50,0.928,1.473,0.962,1.761,1.218,0.509,0.939,0.861,���쓌,0.9,��
2017/09/13,09:00,0.928,1.471,0.963,1.763,1.220,0.509,0.941,0.861,�k�k��,0.8,��
2017/09/13,09:10,0.929,1.473,0.964,1.764,1.220,0.510,0.938,0.863,�k��,1.7,��
2017/09/13,09:20,0.928,1.476,0.965,1.764,1.219,0.511,0.938,0.861,-,CALM,��
2017/09/13,09:30,0.930,1.471,0.963,1.765,1.221,0.510,0.939,0.862,�k�k��,3.2,��
2017/09/13,09:40,0.931,1.477,0.964,1.767,1.218,0.511,0.939,0.863,�k�k��,3.7,��
2017/09/13,09:50,0.931,1.475,0.967,1.766,1.222,0.511,0.939,0.865,�k��,3.5,��
2017/09/13,10:00,0.931,1.478,0.966,1.768,1.222,0.511,0.941,0.862,�k�k��,2.5,��
2017/09/13,10:10,0.931,1.477,0.966,1.769,1.224,0.510,0.939,0.863,�k�k��,2.6,��
2017/09/13,10:20,0.933,1.476,0.966,1.767,1.224,0.510,0.941,0.863,�k�k��,2.6,��
2017/09/13,10:30,0.933,1.477,0.966,1.770,1.224,0.509,0.939,0.863,���k��,3.6,��
2017/09/13,10:40,0.933,1.479,0.964,1.765,1.223,0.508,0.939,0.864,���k��,3.3,��
2017/09/13,10:50,0.933,1.477,0.968,1.765,1.225,0.507,0.940,0.864,���k��,3.4,��
2017/09/13,11:00,0.934,1.480,0.968,1.767,1.225,0.510,0.940,0.865,��,3.6,��
2017/09/13,11:10,0.934,1.478,0.968,1.766,1.227,0.512,0.939,0.864,���쓌,3.2,��
2017/09/13,11:20,0.936,1.480,0.969,1.768,1.228,0.512,0.938,0.864,���k��,3.3,��
2017/09/13,11:30,0.935,1.481,0.967,1.769,1.227,0.512,0.940,0.865,��,2.9,��
2017/09/13,11:40,0.935,1.485,0.969,1.768,1.229,0.512,0.939,0.863,��,3.3,��
2017/09/13,11:50,0.936,1.485,0.971,1.771,1.230,0.513,0.940,0.865,��,3.7,��
2017/09/13,12:00,0.937,1.485,0.969,1.770,1.231,0.514,0.941,0.865,��,3.9,��
2017/09/13,12:10,0.936,1.485,0.973,1.769,1.230,0.514,0.941,0.866,�쓌,2.5,��
2017/09/13,12:20,0.936,1.485,0.973,1.769,1.231,0.513,0.938,0.862,�쓌,3.1,��
2017/09/13,12:30,0.938,1.489,0.972,1.772,1.235,0.514,0.941,0.864,�쓌,2.3,��
2017/09/13,12:40,0.936,1.488,0.972,1.770,1.234,0.514,0.942,0.865,���쓌,2.8,��
2017/09/13,12:50,0.939,1.488,0.973,1.772,1.234,0.512,0.941,0.866,�쓌,3.5,��
2017/09/13,13:00,0.937,1.490,0.974,1.772,1.234,0.514,0.941,0.864,�쓌,3.3,��
2017/09/13,13:10,0.940,1.489,0.971,1.774,1.236,0.513,0.940,0.864,���쓌,3.6,��
2017/09/13,13:20,0.938,1.487,0.971,1.771,1.235,0.513,0.940,0.865,�쓌,3.5,��
2017/09/13,13:30,0.940,1.492,0.973,1.773,1.236,0.514,0.941,0.866,���쓌,3.5,��
2017/09/13,13:40,0.936,1.489,0.972,1.772,1.235,0.514,0.941,0.867,�쓌,3.6,��
2017/09/13,13:50,0.941,1.488,0.972,1.774,1.235,0.514,0.942,0.866,�쓌,3.8,��
2017/09/13,14:00,0.940,1.488,0.972,1.771,1.236,0.514,0.941,0.863,�쓌,3.9,��
2017/09/13,14:10,0.941,1.492,0.974,1.773,1.237,0.514,0.941,0.864,��쓌,5.6,��
2017/09/13,14:20,0.942,1.489,0.974,1.771,1.236,0.514,0.940,0.864,��쓌,6.3,��
2017/09/13,14:30,0.941,1.489,0.975,1.773,1.236,0.514,0.941,0.866,��쓌,7.9,��
2017/09/13,14:40,0.940,1.489,0.973,1.772,1.237,0.515,0.941,0.866,��쓌,6.9,��
2017/09/13,14:50,0.941,1.492,0.973,1.772,1.238,0.513,0.943,0.866,��쓌,6.7,��
2017/09/13,15:00,0.943,1.492,0.976,1.774,1.237,0.515,0.942,0.864,��쓌,7.2,��
2017/09/13,15:10,0.942,1.494,0.973,1.777,1.238,0.515,0.940,0.866,��쓌,7.4,��
2017/09/13,15:20,0.938,1.494,0.974,1.774,1.235,0.516,0.941,0.866,��쓌,7.8,��
2017/09/13,15:30,0.941,1.493,0.974,1.774,1.237,0.516,0.942,0.865,��쓌,7.9,��
2017/09/13,15:40,0.941,1.493,0.976,1.771,1.239,0.514,0.940,0.865,��쓌,7.2,��
2017/09/13,15:50,0.940,1.495,0.974,1.771,1.237,0.516,0.941,0.864,��쓌,8.0,��
2017/09/13,16:00,0.942,1.497,0.975,1.774,1.238,0.516,0.942,0.864,��쓌,8.1,��
2017/09/13,16:10,0.939,1.495,0.974,1.772,1.238,0.518,0.942,0.864,��쓌,6.9,��
2017/09/13,16:20,0.940,1.496,0.973,1.772,1.239,0.518,0.942,0.866,�쓌,3.4,��
2017/09/13,16:30,0.941,1.496,0.975,1.773,1.240,0.515,0.940,0.865,��쓌,6.3,��
2017/09/13,16:40,0.940,1.495,0.971,1.773,1.242,0.516,0.940,0.866,��쓌,6.1,��
2017/09/13,16:50,0.940,1.496,0.974,1.775,1.243,0.516,0.939,0.865,��쓌,5.0,��
2017/09/13,17:00,0.940,1.498,0.975,1.773,1.240,0.517,0.941,0.864,��쓌,6.3,��
2017/09/13,17:10,0.942,1.499,0.975,1.775,1.239,0.516,0.942,0.868,��쓌,7.3,��
2017/09/13,17:20,0.941,1.499,0.975,1.774,1.241,0.517,0.939,0.867,��쓌,7.7,��
2017/09/13,17:30,0.940,1.500,0.975,1.772,1.239,0.516,0.940,0.868,��쓌,7.8,��
2017/09/13,17:40,0.941,1.501,0.974,1.772,1.240,0.517,0.939,0.870,��쓌,6.0,��
2017/09/13,17:50,0.941,1.501,0.974,1.773,1.240,0.517,0.942,0.867,��,5.2,��
2017/09/13,18:00,0.939,1.499,0.975,1.775,1.241,0.517,0.943,0.868,��,3.0,��
2017/09/13,18:10,0.942,1.497,0.973,1.774,1.240,0.517,0.941,0.869,��,3.1,��
2017/09/13,18:20,0.940,1.502,0.975,1.775,1.243,0.518,0.941,0.868,��쓌,2.5,��
2017/09/13,18:30,0.942,1.501,0.978,1.778,1.241,0.518,0.940,0.867,��,2.0,��
2017/09/13,18:40,0.940,1.503,0.978,1.774,1.244,0.518,0.941,0.867,��,1.7,��
2017/09/13,18:50,0.941,1.501,0.977,1.776,1.242,0.517,0.944,0.867,���쐼,0.6,��
2017/09/13,19:00,0.942,1.503,0.976,1.777,1.241,0.517,0.942,0.868,��,1.2,��
2017/09/13,19:10,0.944,1.504,0.978,1.775,1.241,0.518,0.942,0.867,���k��,0.9,��
2017/09/13,19:20,0.942,1.500,0.977,1.777,1.242,0.516,0.941,0.868,�k��,0.8,��
2017/09/13,19:30,0.943,1.499,0.978,1.775,1.242,0.516,0.941,0.866,���k��,1.4,��
2017/09/13,19:40,0.943,1.501,0.976,1.777,1.238,0.516,0.941,0.867,��,1.2,��
2017/09/13,19:50,0.942,1.500,0.976,1.776,1.242,0.517,0.944,0.868,��,1.5,��
2017/09/13,20:00,0.944,1.504,0.977,1.775,1.242,0.518,0.942,0.868,���k��,2.3,��
2017/09/13,20:10,0.941,1.501,0.976,1.775,1.241,0.518,0.942,0.865,�k��,3.0,��
2017/09/13,20:20,0.943,1.499,0.976,1.777,1.239,0.517,0.942,0.867,���k��,2.3,��
2017/09/13,20:30,0.940,1.500,0.975,1.776,1.242,0.517,0.944,0.866,���k��,2.6,��
2017/09/13,20:40,0.942,1.503,0.979,1.772,1.239,0.516,0.941,0.867,���k��,2.5,��
2017/09/13,20:50,0.942,1.498,0.977,1.774,1.240,0.517,0.944,0.867,���k��,3.3,��
2017/09/13,21:00,0.942,1.499,0.978,1.775,1.242,0.518,0.942,0.866,���k��,4.0,��
2017/09/13,21:10,0.941,1.499,0.977,1.778,1.241,0.515,0.941,0.866,���k��,4.3,��
2017/09/13,21:20,0.940,1.499,0.974,1.775,1.241,0.517,0.940,0.866,��,3.7,��
2017/09/13,21:30,0.943,1.499,0.974,1.775,1.240,0.516,0.942,0.865,��,3.1,��
2017/09/13,21:40,0.943,1.501,0.977,1.778,1.241,0.517,0.941,0.867,���쐼,2.0,��
2017/09/13,21:50,0.942,1.500,0.976,1.776,1.241,0.517,0.942,0.866,���쐼,2.0,��
2017/09/13,22:00,0.942,1.498,0.974,1.775,1.240,0.515,0.941,0.868,���쐼,3.1,��
2017/09/13,22:10,0.943,1.497,0.977,1.777,1.242,0.516,0.941,0.866,��,3.4,��
2017/09/13,22:20,0.941,1.500,0.977,1.775,1.242,0.517,0.942,0.867,��,2.8,��
2017/09/13,22:30,0.943,1.500,0.977,1.776,1.241,0.517,0.942,0.868,���k��,2.2,��
2017/09/13,22:40,0.941,1.500,0.977,1.776,1.241,0.517,0.941,0.867,�쐼,0.6,��
2017/09/13,22:50,0.942,1.499,0.978,1.776,1.242,0.515,0.941,0.866,��쓌,0.6,��
2017/09/13,23:00,0.940,1.501,0.978,1.774,1.239,0.515,0.942,0.864,��쓌,0.6,��
2017/09/13,23:10,0.942,1.502,0.975,1.774,1.242,0.517,0.942,0.866,��쓌,1.7,��
2017/09/13,23:20,0.942,1.496,0.976,1.776,1.238,0.517,0.942,0.866,��,2.6,��
2017/09/13,23:30,0.939,1.500,0.979,1.776,1.241,0.516,0.941,0.868,��쐼,1.4,��
2017/09/13,23:40,0.943,1.501,0.978,1.776,1.238,0.517,0.943,0.867,-,CALM,��
2017/09/13,23:50,0.941,1.499,0.979,1.776,1.241,0.515,0.942,0.868,-,CALM,��
